This demonstration page uses our WeatherBlox Daily Observations layout. Learn more.

Left ArrowRight Arrow

39.12711, -84.51439

Hourly Observations for October 26, 2021

Temp ( °F °C ) Dew Point ( °F °C ) Humidity (%) Winds ( mph kmh ) Pressure ( in mb ) Visibility ( mi km ) Precip ( " mm )
12:02 am 00:02 Cloudy 51 10.6 49 9.4 92 92 NW 10 17 29.91 1013 10 16 N/A
12:53 am 00:53 Cloudy 52 11.1 48 8.9 86 86 NW 9 15 29.91 1013 10 16 N/A
1:53 am 01:53 Cloudy 51 10.6 48 8.9 89 89 N 14 22 29.91 1013 10 16 N/A
2:53 am 02:53 Cloudy 51 10.6 44 6.7 77 77 N 14 22 29.94 1014 10 16 N/A
3:53 am 03:53 Cloudy 50 10 44 6.7 80 80 N 13 20 29.96 1015 10 16 N/A
4:53 am 04:53 Cloudy 50 10 43 6.1 77 77 NNW 13 20 29.98 1015 10 16 N/A
5:53 am 05:53 Cloudy 49 9.4 42 5.6 77 77 N 7 11 29.99 1016 10 16 N/A
6:53 am 06:53 Cloudy 49 9.4 41 5 74 74 NNW 10 17 30.01 1016 10 16 N/A
7:53 am 07:53 Cloudy 49 9.4 39 3.9 69 69 NNE 8 13 30.03 1017 10 16 N/A
8:53 am 08:53 Cloudy 49 9.4 39 3.9 69 69 N 8 13 30.04 1017 10 16 N/A
9:53 am 09:53 Cloudy 50 10 41 5 71 71 N 12 19 30.05 1018 10 16 N/A
10:53 am 10:53 Mostly Cloudy 52 11.1 42 5.6 69 69 NNW 10 17 30.05 1018 10 16 N/A
11:00 am 11:00 Mostly Cloudy 50 10 40 4.4 68 68 N 14 22 30.06 1018 10 16 N/A
11:53 am 11:53 Partly Cloudy 54 12.2 42 5.6 64 64 NNE 10 17 30.06 1018 10 16 N/A
12:53 pm 12:53 Partly Cloudy 55 12.8 40 4.4 57 57 NNW 10 17 30.05 1018 10 16 N/A
1:53 pm 13:53 Mostly Sunny 56 13.3 39 3.9 53 53 NNW 9 15 30.03 1017 10 16 N/A
2:53 pm 14:53 Partly Cloudy 56 13.3 38 3.3 51 51 NW 13 20 30.01 1016 10 16 N/A
3:53 pm 15:53 Sunny 58 14.4 37 2.8 46 46 NNW 8 13 30.00 1016 10 16 N/A
4:53 pm 16:53 Sunny 58 14.4 37 2.8 46 46 N 7 11 30.00 1016 10 16 N/A
5:53 pm 17:53 Sunny 56 13.3 36 2.2 47 47 NNW 7 11 30.00 1016 10 16 N/A
6:53 pm 18:53 Clear 53 11.7 36 2.2 52 52 NNW 7 11 30.01 1016 10 16 N/A
7:53 pm 19:53 Clear 46 7.8 41 5 83 83 N N/A 30.02 1017 10 16 N/A
8:53 pm 20:53 Clear 43 6.1 41 5 93 93 N N/A 30.03 1017 10 16 N/A
9:53 pm 21:53 Clear 42 5.6 41 5 96 96 N N/A 30.04 1017 10 16 N/A
10:53 pm 22:53 Clear 40 4.4 40 4.4 100 100 N N/A 30.05 1018 10 16 N/A
11:53 pm 23:53 Clear 38 3.3 37 2.8 97 97 ENE 3 6 30.04 1017 9 14 N/A

Powered by AerisWeather